Regional Weather Roundup
Issued by NWS Cleveland, OH

Home | Current Version | Previous Version | Text Only | Print | Product List | Glossary Off
Versions: 1 2 3 4 5 6 7 8 9 10 11 12 13 14 15 16 17 18 19 20 21 22 23 24 25 26 27 28 29 30 31 32 33 34 35 36 37 38 39 40 41 42 43 44 45 46 47 48 49 50

000
ASUS41 KCLE 260102
RWRCLE
OHIO REGIONAL WEATHER ROUNDUP
NATIONAL WEATHER SERVICE CLEVELAND, OH
800 PM EST SAT FEB 25 2017

NOTE: "FAIR" INDICATES FEW OR NO CLOUDS BELOW 12,000 FEET WITH NO
SIGNIFICANT WEATHER AND/OR OBSTRUCTIONS TO VISIBILITY.

OHZ001>008-015>018-024>027-034-035-043-044-260200-
   NORTHWEST OHIO

CITY           SKY/WX    TMP DP  RH WIND       PRES   REMARKS
DEFIANCE       CLOUDY    27  16  63 W7        29.95R WCI  19
FINDLAY        CLOUDY    28  16  60 W14       29.94R WCI  17
TOLEDO EXPRESS CLOUDY    26  16  65 W15G23    29.92R WCI  14
TOLEDO EXEC    CLOUDY    28  16  60 W17       29.93R WCI  16
LIMA           CLOUDY    27  20  75 W16       29.95R WCI  15
$$

OHZ009>014-019>023-028>033-038-089-260200-
   NORTHEAST OHIO

CITY           SKY/WX    TMP DP  RH WIND       PRES   REMARKS
CLE-HOPKINS    FLURRIES  29  19  66 W24G31    29.91R WCI  15
CLE-LAKEFRONT  FLURRIES  30  20  66 W30G39    29.89R WCI  15
CUY CO. ARPT   FLURRIES  30  21  69 W17G32    29.87R WCI  18
LORAIN-ELYRIA  CLOUDY    27  17  66 W15G29    29.91R WCI  15
ASHTABULA      FLURRIES  29  21  72 W21G30    29.84R WCI  16
AKRON-CANTON   FLURRIES  28  17  63 W16G30    29.88R WCI  16
WOOSTER        CLOUDY    27  17  66 W17G29    29.91R WCI  14
MANSFIELD      FLURRIES  25  18  74 W12G26    29.91R WCI  14
YOUNGSTOWN     FLURRIES  30  17  58 W17G28    29.84R WCI  18
$$

OHZ042-051>053-060>062-070>072-077>081-260200-
  SOUTHWEST OHIO

CITY           SKY/WX    TMP DP  RH WIND       PRES   REMARKS
CINC-COVINGTON MOCLDY    32  17  54 W18       30.02R WCI  20
CINC-LUNKEN    CLOUDY    34  19  54 W14       30.05R WCI  25
HAMILTON       CLOUDY    33  19  56 W8        30.04R WCI  26
DAYTON         CLOUDY    28  20  71 W12       29.99R WCI  18
WRIGHT-PAT AFB CLOUDY    30  20  66 W8        29.99S WCI  22
DAYTON GENERAL CLOUDY    31  17  56 VRB7G18   29.99R WCI  24
WILMINGTON     CLOUDY    30  17  58 W16G23    29.99R WCI  19
$$

OHZ036-037-039>041-045>050-054>059-063>069-073>076-082>088-260200-
  CENTRAL AND SOUTHEAST OHIO

CITY           SKY/WX    TMP DP  RH WIND       PRES   REMARKS
COLUMBUS       FLURRIES  30  18  60 W18       29.99R WCI  18
OSU AIRPORT    CLOUDY    27  19  72 W16       29.99R WCI  15
BOLTON FIELD   NOT AVBL
RICKENBACK AFB CLOUDY    29  19  67 W13       30.00R WCI  18
NEWARK         CLOUDY    29  17  61 W16G30    29.97R WCI  17
MARION         CLOUDY    27  18  69 W13G24    29.96R WCI  16
LANCASTER      CLOUDY    31  19  61 W10G17    30.00R WCI  22
ZANESVILLE     CLOUDY    30  19  63 W18G25    29.96R WCI  18
NEW PHILLY     NOT AVBL
$$




USA.gov is the U.S. government's official web portal to all federal, state and local government web resources and services.